Weather History for KISO - October, 2011

Change the Weather History Date:

Saturday, October 22, 2011

  Actual Average Record
Temperature  
Mean Temperature 55 °F -  
Max Temperature 69 °F 70 °F 104 °F (1996)
Min Temperature 41 °F 49 °F 28 °F (1974)
Degree Days  
Heating Degree Days 10    
Growing Degree Days 5 (Base 50)    
Moisture  
Dew Point 45 °F    
Average Humidity 84    
Maximum Humidity 100    
Minimum Humidity 40    
Precipitation  
Precipitation 0.00 in - - ()
Sea Level Pressure  
Sea Level Pressure 30.10 in    
Wind  
Wind Speed 2 mph (North)    
Max Wind Speed 8 mph    
Max Gust Speed -    
Visibility 8 miles    
Events      
Averages and records for this station are not official NWS values.
T = Trace of Precipitation, MM = Missing Value Source: NWS Daily Summary

Daily Weather History Graph

Daily Weather History Graph

Search for Another Location

Airport or City:

Trip Planner

Search our weather history database for the weather conditions in past years. The results will help you decide how hot, cold, wet, or windy it might be!

Date:

Astronomy

Oct. 22, 2011 Rise Set
Actual Time 7:22 AM EDT 6:26 PM EDT
Civil Twilight 6:56 AM EDT 6:52 PM EDT
Nautical Twilight 6:26 AM EDT 7:22 PM EDT
Astronomical Twilight 5:57 AM EDT 7:51 PM EDT
Moon 2:28 AM EDT (10/22) 3:34 PM EDT (10/22)
Length of Visible Light 11h 56m
Length of Day
11h 04m
Waning Crescent, 24% of the Moon is Illuminated
Oct 22
Waning Crescent
Oct 26
New
Nov 2
First Quarter
Nov 10
Full
Nov 18
Last Quarter

Hourly Weather History & Observations

Time (EDT) Temp. Dew Point Humidity Pressure Visibility Wind Dir Wind Speed Gust Speed Precip Events Conditions
12:15 AM 44.6 °F 42.8 °F 93% 30.09 in 7.0 mi Calm Calm - N/A   Clear
12:35 AM 42.8 °F 42.8 °F 100% 30.09 in 4.0 mi Calm Calm - N/A   Clear
12:55 AM 42.8 °F 42.8 °F 100% 30.09 in 7.0 mi Calm Calm - N/A   Clear
1:15 AM 42.8 °F 42.8 °F 100% 30.09 in 4.0 mi Calm Calm - N/A   Clear
1:35 AM 42.8 °F 42.8 °F 100% 30.09 in 4.0 mi Calm Calm - N/A   Clear
1:55 AM 42.8 °F 42.8 °F 100% 30.09 in 10.0 mi Calm Calm - N/A   Clear
2:15 AM 42.8 °F 41.0 °F 93% 30.09 in 7.0 mi Calm Calm - N/A   Clear
2:35 AM 42.8 °F 41.0 °F 93% 30.08 in 7.0 mi Calm Calm - N/A   Clear
3:15 AM 41.0 °F 41.0 °F 100% 30.08 in 5.0 mi Calm Calm - N/A   Clear
3:35 AM 41.0 °F 41.0 °F 100% 30.08 in 7.0 mi Calm Calm - N/A   Clear
3:55 AM 41.0 °F 41.0 °F 100% 30.08 in 7.0 mi Calm Calm - N/A   Clear
4:15 AM 41.0 °F 41.0 °F 100% 30.08 in 7.0 mi Calm Calm - N/A   Clear
4:35 AM 41.0 °F 39.2 °F 93% 30.08 in 7.0 mi Calm Calm - N/A   Clear
4:55 AM 41.0 °F 41.0 °F 100% 30.09 in 5.0 mi Calm Calm - N/A   Clear
5:15 AM 41.0 °F 41.0 °F 100% 30.09 in 7.0 mi Calm Calm - N/A   Clear
5:35 AM 41.0 °F 41.0 °F 100% 30.09 in 5.0 mi Calm Calm - N/A   Clear
5:55 AM 41.0 °F 41.0 °F 100% 30.09 in 10.0 mi Calm Calm - N/A   Clear
6:15 AM 41.0 °F 41.0 °F 100% 30.09 in 5.0 mi Calm Calm - N/A   Clear
6:35 AM 41.0 °F 41.0 °F 100% 30.10 in 10.0 mi Calm Calm - N/A   Clear
7:56 AM 44.6 °F 42.8 °F 93% 30.12 in 7.0 mi Calm Calm - N/A   Clear
8:56 AM 50.0 °F 48.2 °F 94% 30.14 in 7.0 mi North 5.8 mph - N/A   Clear
9:56 AM 55.4 °F 51.8 °F 88% 30.14 in 7.0 mi NNE 6.9 mph - N/A   Clear
11:56 AM 64.4 °F 51.8 °F 64% 30.13 in 7.0 mi NNE 4.6 mph - N/A   Scattered Clouds
12:56 PM 66.2 °F 46.4 °F 49% 30.11 in 7.0 mi NNE 8.1 mph - N/A   Mostly Cloudy
1:56 PM 68.0 °F 44.6 °F 43% 30.08 in 7.0 mi NW 3.5 mph - N/A   Scattered Clouds
2:56 PM 69.8 °F 44.6 °F 40% 30.07 in 10.0 mi North 8.1 mph - N/A   Scattered Clouds
3:56 PM 68.0 °F 44.6 °F 43% 30.07 in 10.0 mi NNW 4.6 mph - N/A   Scattered Clouds
4:56 PM 68.0 °F 42.8 °F 40% 30.06 in 10.0 mi NNE 3.5 mph - N/A   Partly Cloudy
5:56 PM 64.4 °F 46.4 °F 52% 30.06 in 10.0 mi NNW 3.5 mph - N/A   Clear
7:56 PM 51.8 °F 48.2 °F 88% 30.09 in 10.0 mi NW 3.5 mph - N/A   Scattered Clouds
8:56 PM 55.4 °F 48.2 °F 77% 30.11 in 10.0 mi NNW 4.6 mph - N/A   Mostly Cloudy
9:15 PM 55.4 °F 48.2 °F 77% 30.11 in 10.0 mi North 3.5 mph - N/A   Mostly Cloudy
9:35 PM 55.4 °F 48.2 °F 77% 30.11 in 10.0 mi North 4.6 mph - N/A   Mostly Cloudy
9:55 PM 55.4 °F 48.2 °F 77% 30.11 in 10.0 mi North 5.8 mph - N/A   Mostly Cloudy
9:56 PM 55.4 °F 48.2 °F 77% 30.11 in 10.0 mi North 5.8 mph - N/A   Mostly Cloudy
10:15 PM 55.4 °F 48.2 °F 77% 30.12 in 10.0 mi North 5.8 mph - N/A   Scattered Clouds
10:35 PM 55.4 °F 48.2 °F 77% 30.12 in 10.0 mi NNE 8.1 mph - N/A   Clear
10:55 PM 53.6 °F 48.2 °F 82% 30.11 in 10.0 mi NNE 6.9 mph - N/A   Clear
11:15 PM 53.6 °F 48.2 °F 82% 30.11 in 10.0 mi East 3.5 mph - N/A   Clear
11:35 PM 53.6 °F 48.2 °F 82% 30.11 in 10.0 mi NE 4.6 mph - N/A   Clear
11:55 PM 51.8 °F 46.4 °F 82% 30.11 in 10.0 mi Calm Calm - N/A   Clear